sat.trackr.live / text

‹ back to catalog

STARLINK-30934

NORAD 58395 · 2023-178X

PAYLOAD ACTIVE UNKNOWN

§ Identity

Operator
Country
US
Launch date
2023-11-20
Launch site
AFWTR
Launch vehicle
Mass (kg)
RCS (m²)

Purposes: comms

External: N2YO · Heavens-Above · Gunter

§ Orbital elements

Epoch: 2026-05-24T23:53:41.089344Z

Period
93.85 min
Inclination
53.1605°
Eccentricity
0.0001220
Mean motion
15.34385849 rev/d
Perigee alt
461.9 km
Apogee alt
463.6 km
Semi-major
6,840.9 km
B*
2.6756e-5
RAAN
6.0458°
Arg perigee
93.0047°
Mean anomaly
267.1096°
Rev number
14,151

§ Raw data

STARLINK-309341 58395U 23178X   26144.99561446  .00000527  00000+0  26756-4 0  99952 58395  53.1605   6.0458 0001220  93.0047 267.1096 15.34385849141516

JSON: /api/v1/satellites/58395 · /tle

For live sub-satellite position, see the globe view (requires WebGL).

§ Visibility from observer

Set your observer location to see the next 7 days of passes ≥ 10°. The values pass through the URL so the page stays shareable.

No JS? Fill the form by hand. The geolocation button needs JavaScript.